Погода в Пушкине

Россия / Брянская область     52°09′36″N   34°20′20″E
темп.,
°C
ветер,
м/с
пор.,
м/с
влажн.,
%
обл.,
%
осадки,
мм/ч
давл.,
гПа
погр.,
м
28 октября, чт
чт2800:00+6зюз388365 0.0 1022283
03:00+5юз51191100 0.0 1021298
06:00+6юз61487100 0.1 1019429
09:00+7зюз61391100 1.4 1018545
12:00+8з61293100 0.8 1019516
15:00+9з51191100 1.1 1018745
18:00+9зсз511938 0.0 1020318
21:00+7сз410950 0.1 1022225
29 октября, пт
пт2900:00+5ссз3393100 0.0 102445
03:00+4ссз229231 0.0 102624
06:00+4ссв119138 0.0 102710
09:00+5ююв00855 0.0 102818
12:00+10юз22665 0.0 1029365
15:00+11юз23625 0.0 1028507
18:00+8юз227914 0.0 102919
21:00+7ююз22840 0.0 103023
30 октября, сб
сб3000:00+6ююз33865 0.0 103041
03:00+5ююз34855 0.0 103151
06:00+4ююз34845 0.0 103148
09:00+5ююз36815 0.0 1032130
12:00+11ююз45615 0.0 1032369
15:00+12ююз35575 0.0 1031522
18:00+8ю35753 0.0 103165
21:00+7ю36805 0.0 103192
31 октября, вс
вс3100:00+6ю37820 0.0 1031107
03:00+5ю36830 0.0 1031102
06:00+4ю36850 0.0 103187
09:00+5ю37830 0.0 1031160
12:00+10ю46600 0.0 1030402
15:00+12ю47540 0.0 1028569
18:00+7ю34710 0.0 102852
21:00+6ююв37750 0.0 1028101
1 ноября, пн
пн100:00+5ю37740 0.0 1027114
03:00+4ю35750 0.0 102776
06:00+4ююв35770 0.0 102669
09:00+4юв37750 0.0 1026146
12:00+10ююв57550 0.0 1024429
15:00+11юв46530 0.0 1022618
18:00+7юв47680 0.0 1021106
21:00+6юв39750 0.0 1021165